{"data":{"norad_id":63133,"epoch":"2026-09-21T01:20:20.329440Z","epoch_age_seconds":114181,"freshness":"FRESH","line1":"1 63133U 25043B   26264.05579085  .00141190  00000+0  10853-2 0  9993","line2":"2 63133  43.0013 153.5178 0001954 271.1091  88.9552 15.70838564 90079","mean_motion":15.70838564,"eccentricity":0.0001954,"inclination_deg":43.0013,"raan_deg":153.5178,"arg_perigee_deg":271.1091,"mean_anomaly_deg":88.9552,"bstar":0.0010853,"rev_number":9007,"period_min":91.670782281609,"perigee_km":355.18321802162,"apogee_km":357.81511383526,"semimajor_km":6734.6361659284,"source":"CELESTRAK","updated_at":"2026-09-22T09:00:49.789835Z"}}